This is the latest recevied weather packets stored in our database for station/object IK8SUT-10. If no packets are shown the sender has not sent any weather packets the latest 10 day(s).
| Time | Temp. | Humidity | Pressure | Rain* | Wind** | Luminosity | Snow |
|---|---|---|---|---|---|---|---|
| 1787989416 | 31.67° C | 47% | 1019 hPa | - | - | - | - |
| 1787988516 | 32.22° C | 47% | 1018.8 hPa | - | - | - | - |
| 1787987615 | 31.67° C | 47% | 1018.6 hPa | - | - | - | - |
| 1787986714 | 31.67° C | 47% | 1018.2 hPa | - | - | - | - |
| 1787985813 | 31.67° C | 47% | 1018.4 hPa | - | - | - | - |
| 1787984912 | 31.67° C | 47% | 1018.2 hPa | - | - | - | - |
| 1787984012 | 31.67° C | 47% | 1018 hPa | - | - | - | - |
| 1787983111 | 31.67° C | 48% | 1017.9 hPa | - | - | - | - |
| 1787982210 | 31.67° C | 48% | 1018 hPa | - | - | - | - |
| 1787981309 | 31.67° C | 48% | 1017.8 hPa | - | - | - | - |
| 1787980408 | 31.67° C | 48% | 1017.5 hPa | - | - | - | - |
| 1787979507 | 31.67° C | 48% | 1017.6 hPa | - | - | - | - |
| 1787978607 | 31.67° C | 48% | 1017.3 hPa | - | - | - | - |
| 1787977706 | 31.67° C | 47% | 1017.3 hPa | - | - | - | - |
| 1787976805 | 31.67° C | 46% | 1017.5 hPa | - | - | - | - |
| 1787975904 | 31.67° C | 45% | 1017.4 hPa | - | - | - | - |
| 1787975004 | 31.67° C | 43% | 1017.4 hPa | - | - | - | - |
| 1787974103 | 31.67° C | 43% | 1017.3 hPa | - | - | - | - |
| 1787973202 | 31.67° C | 44% | 1017.4 hPa | - | - | - | - |
| 1787972301 | 31.67° C | 44% | 1017.5 hPa | - | - | - | - |
| 1787971400 | 32.78° C | 44% | 1017.7 hPa | - | - | - | - |
| 1787970560 | 31.67° C | 46% | 1017.6 hPa | - | - | - | - |
| 1787969667 | 32.22° C | 43% | 1016.7 hPa | - | - | - | - |
| 1787968756 | 31.67° C | 42% | 1017 hPa | - | - | - | - |
| 1787967855 | 32.22° C | 42% | 1017.1 hPa | - | - | - | - |
* Rain since midnight (hover to see other rain measurements)
** Current wind speed in m/s (hover to see current wind gust speed)